Regional Weather Roundup
Issued by NWS

Home | Current Version | Previous Version | Text Only | Print | Product List | Glossary On
Versions: 1 2 3 4 5 6 7 8 9 10 11 12 13 14 15 16 17 18 19 20 21 22 23 24 25 26 27 28 29 30 31 32 33 34 35 36 37 38 39 40 41 42 43 44 45 46 47 48 49 50
000
ASUS43 KDTX 020010
RWRMI
MICHIGAN HOURLY REGIONAL WEATHER ROUNDUP
NATIONAL WEATHER SERVICE DETROIT/PONTIAC MI
800 PM EDT SUN MAY 01 2016

NOTE: "FAIR" INDICATES FEW OR NO CLOUDS BELOW 12,000 FEET WITH NO
SIGNIFICANT WEATHER AND/OR OBSTRUCTION TO VISIBILITY.

MIZ047>049-052>055-059>063-066>070-074>076-081>083-020100-
SOUTHEAST LOWER MICHIGAN

CITY           SKY/WX    TMP DP  RH WIND       PRES   REMARKS
ADRIAN         CLOUDY    53  48  83 NE8       30.00R
6HR MIN TEMP:  52; 6HR MAX TEMP:  56;

ALMA           CLOUDY    47  38  69 NE14      30.06S
ANN ARBOR      CLOUDY    50  46  86 NE9       30.00R
BAD AXE        CLOUDY    44  40  85 NE10      30.07S
6HR MIN TEMP:  44; 6HR MAX TEMP:  47;

CARO           CLOUDY    47  38  73 NE5G16    30.05S
DETROIT CITY   CLOUDY    50  44  80 NE8       30.01S
6HR MIN TEMP:  50; 6HR MAX TEMP:  55;

DETROIT        CLOUDY    51  45  79 N12       30.00R
6HR MIN TEMP:  50; 6HR MAX TEMP:  55; 6HR PCP: TRACE;

FLINT          CLOUDY    50  41  71 NE13      30.04R
6HR MIN TEMP:  49; 6HR MAX TEMP:  53;

GROSSE ILE     CLOUDY    52  46  82 NE8       29.99R
HILLSDALE      CLOUDY    50  50  98 NE7       29.98S FOG
6HR MIN TEMP:  50; 6HR MAX TEMP:  54;

HOWELL         CLOUDY    47  45  93 NE10G18   30.01S

CITY           SKY/WX    TMP DP  RH WIND       PRES   REMARKS
JACKSON        CLOUDY    50  46  86 NE9       29.99S
6HR MIN TEMP:  50; 6HR MAX TEMP:  51;

LAMBERTVILLE   CLOUDY    54  50  87 CALM      29.99R FOG
6HR MIN TEMP:  54; 6HR MAX TEMP:  56;

LANSING        CLOUDY    47  43  86 NE12      30.03S
6HR MIN TEMP:  46; 6HR MAX TEMP:  51;

LAPEER         CLOUDY    46  39  76 NE6       30.04R
6HR MIN TEMP:  46; 6HR MAX TEMP:  48;

MASON          CLOUDY    47  45  91 NE10      30.01S
MONROE         CLOUDY    53  49  87 N9        29.99R
6HR MIN TEMP:  52; 6HR MAX TEMP:  55;

MT. CLEMENS    CLOUDY    49  48  97 N14       30.00S
6HR MIN TEMP:  49; 6HR MAX TEMP:  53;

PONTIAC        CLOUDY    46  43  89 N13       30.01R
6HR MIN TEMP:  46; 6HR MAX TEMP:  50;

PORT HOPE        N/A     43  39  86 NE9       30.06R
6HR MIN TEMP:  43; 6HR MAX TEMP:  44;

PORT HURON     CLOUDY    45  43  93 N5        30.02S
TRI CITIES     CLOUDY    49  39  68 NE14      30.07F
6HR MIN TEMP:  48; 6HR MAX TEMP:  51;

MIDLAND        MOCLDY    48  36  64 NE12G20   30.07S
6HR MIN TEMP:  47; 6HR MAX TEMP:  52;

TROY           CLOUDY    49  46  89 N7G16     30.03R
SAGINAW HB     CLOUDY    46  37  71 NE16      30.05S
$$
MIZ043>046-050>051-056>058-064>065-071>073-077>080-020100-
SOUTHWEST LOWER MICHIGAN

CITY           SKY/WX    TMP DP  RH WIND       PRES   REMARKS
BATTLE CREEK   CLOUDY    50  46  86 NE12      29.99F
6HR MIN TEMP:  50; 6HR MAX TEMP:  51;

BENTON HARBOR  CLOUDY    53  47  79 NE7       29.97R
6HR MIN TEMP:  53; 6HR MAX TEMP:  55;

BIG RAPIDS     CLOUDY    51  37  59 NE9       30.05S
6HR MIN TEMP:  48; 6HR MAX TEMP:  51;

COLDWATER      CLOUDY    51  48  91 NE10      29.97F
6HR MIN TEMP:  51; 6HR MAX TEMP:  54;

FREMONT        CLOUDY    50  40  68 E10       30.03F
6HR MIN TEMP:  50; 6HR MAX TEMP:  53;

HOLLAND        CLOUDY    52  45  77 E10G21    30.01S
6HR MIN TEMP:  51; 6HR MAX TEMP:  54;

GRAND RAPIDS   CLOUDY    50  42  74 NE15G25   30.02F
6HR MIN TEMP:  50; 6HR MAX TEMP:  52;

IONIA          CLOUDY    46  41  82 NE15G24   30.03R
6HR MIN TEMP:  46; 6HR MAX TEMP:  50;

KALAMAZOO      CLOUDY    50  46  86 NE7       29.97F
6HR MIN TEMP:  50; 6HR MAX TEMP:  53;

LUDINGTON      CLOUDY    51  42  71 E8        30.06S
6HR MIN TEMP:  51; 6HR MAX TEMP:  53;

MARSHALL       CLOUDY    50  47  90 NE3       29.98S
6HR MIN TEMP:  50; 6HR MAX TEMP:  51;

MOUNT PLEASANT PTCLDY    49  35  58 E9        30.06R
6HR MIN TEMP:  47; 6HR MAX TEMP:  52;

MUSKEGON       CLOUDY    53  42  66 NE14      30.03S
6HR MIN TEMP:  53; 6HR MAX TEMP:  57;

SOUTH HAVEN    CLOUDY    51  47  84 E10       29.98S
$$
MIZ016>042-020100-
NORTHERN LOWER MICHIGAN

CITY           SKY/WX    TMP DP  RH WIND       PRES   REMARKS
ALPENA         CLOUDY    50  32  50 E6        30.10R
6HR MIN TEMP:  50; 6HR MAX TEMP:  55;

BEAVER ISLAND  MOCLDY    51  35  54 NW6       30.10R
6HR MIN TEMP:  51; 6HR MAX TEMP:  57;

BELLAIRE       MOCLDY    56  31  38 E5        30.08S
6HR MIN TEMP:  52; 6HR MAX TEMP:  57;

CADILLAC       CLOUDY    50  36  57 NE9       30.06R
CHARLEVOIX     CLOUDY    56  30  37 NE8       30.10S
6HR MIN TEMP:  47; 6HR MAX TEMP:  57;

FRANKFORT      CLOUDY    54  40  60 NE7       30.08R
GAYLORD        CLOUDY    52  31  44 VRB5      30.07F
6HR MIN TEMP:  50; 6HR MAX TEMP:  54;

GRAYLING       CLOUDY    52  34  50 E3        30.08S
HARBOR SPRINGS CLOUDY    55  29  37 NE6       30.08S
HOUGHTON LAKE  CLOUDY    51  33  50 E12       30.07S
6HR MIN TEMP:  50; 6HR MAX TEMP:  55;

MANISTEE       CLOUDY    54  37  54 NE9       30.08R
OSCODA         PTCLDY    48  33  56 NE9       30.09R
6HR MIN TEMP:  48; 6HR MAX TEMP:  53;

PELLSTON       CLOUDY    55  31  39 S3        30.09S
6HR MIN TEMP:  54; 6HR MAX TEMP:  58;

ROGERS CITY    CLOUDY    49  36  60 CALM      30.10S
TRAVERSE CITY  CLOUDY    50  38  63 NE5       30.07S
6HR MIN TEMP:  50; 6HR MAX TEMP:  57; 6HR PCP: TRACE;

$$
MIZ007>008-015-020100-
EASTERN UPPER MICHIGAN

CITY           SKY/WX    TMP DP  RH WIND       PRES   REMARKS
KINROSS          N/A     54  30  40 N8        30.08S
6HR MIN TEMP:  54; 6HR MAX TEMP:  61;

MACKINAC ISLAN MOCLDY    53  31  42 CALM      30.08F
6HR MIN TEMP:  51; 6HR MAX TEMP:  55;

NEWBERRY       CLOUDY    56  31  38 N9        30.09R
6HR MIN TEMP:  55; 6HR MAX TEMP:  61;

S. S. MARIE    CLOUDY    56  32  40 W5        30.08R
6HR MIN TEMP:  56; 6HR MAX TEMP:  62;

MUNISING         N/A     43  36  76 N8        30.13S
6HR MIN TEMP:  43; 6HR MAX TEMP:  47;

$$
MIZ004>006-011>014-085-020100-
CENTRAL UPPER MICHIGAN

CITY           SKY/WX    TMP DP  RH WIND       PRES   REMARKS
MANISTIQUE     CLOUDY    51  33  49 CALM      30.09S
6HR MIN TEMP:  51; 6HR MAX TEMP:  56;

ESCANABA       CLEAR     55  30  38 SE3       30.10S
6HR MIN TEMP:  54; 6HR MAX TEMP:  55;

MENOMINEE      CLEAR     54  36  50 E6        30.10S
6HR MIN TEMP:  52; 6HR MAX TEMP:  55;

SAWYER-GWINN   CLEAR     45  32  61 NE7       30.12F
$$
MIZ001>003-009>011-084-020100-
WESTERN UPPER MICHIGAN

CITY           SKY/WX    TMP DP  RH WIND       PRES   REMARKS
IRON MOUNTAIN  MOCLDY    56  30  37 NE5       30.08S
6HR MIN TEMP:  56; 6HR MAX TEMP:  63;

HOUGHTON       CLEAR     50  32  50 E7        30.15S
6HR MIN TEMP:  49; 6HR MAX TEMP:  54;

COPPER HARBOR    N/A     47  37  68 CALM      30.16S
6HR MIN TEMP:  42; 6HR MAX TEMP:  48;

IRONWOOD         N/A     46  34  61 NE7       30.12S
6HR MIN TEMP:  46; 6HR MAX TEMP:  52;

$$

ABBREVIATIONS USED IN REMARKS
   TC - TEMPERATURE IN CELSIUS
  WCI - WIND CHILL INDEX
   HX - HEAT INDEX
  VSB - VISIBILITY




USA.gov is the U.S. government's official web portal to all federal, state and local government web resources and services.